This is the latest recevied weather packets stored in our database for station/object AD7ZD. If no packets are shown the sender has not sent any weather packets the latest 10 day(s).
| Time | Temp. | Humidity | Pressure | Rain* | Wind** | Luminosity | Snow |
|---|---|---|---|---|---|---|---|
| 1777583029 | 21.11° C | 20% | 1014.3 hPa | 0 mm | - | 754 W/m² | - |
| 1777582726 | 20° C | 21% | 1014.3 hPa | 0 mm | - | 763 W/m² | - |
| 1777582421 | 20° C | 21% | 1014.5 hPa | 0 mm | - | 767 W/m² | - |
| 1777582120 | 20° C | 20% | 1014.3 hPa | 0 mm | - | 758 W/m² | - |
| 1777581815 | 20° C | 21% | 1014.5 hPa | 0 mm | - | 760 W/m² | - |
| 1777581514 | 20.56° C | 21% | 1014.5 hPa | 0 mm | - | 678 W/m² | - |
| 1777581210 | 19.44° C | 20% | 1014.7 hPa | 0 mm | - | 772 W/m² | - |
| 1777580904 | 20° C | 20% | 1014.5 hPa | 0 mm | - | 749 W/m² | - |
| 1777580604 | 19.44° C | 21% | 1014.7 hPa | 0 mm | - | 743 W/m² | - |
| 1777580300 | 20° C | 21% | 1014.6 hPa | 0 mm | - | 784 W/m² | - |
| 1777579997 | 18.89° C | 21% | 1014.6 hPa | 0 mm | - | 694 W/m² | - |
| 1777579692 | 22.22° C | 19% | 1014.9 hPa | 0 mm | - | 768 W/m² | - |
| 1777579391 | 20° C | 20% | 1014.7 hPa | 0 mm | - | 746 W/m² | - |
| 1777579087 | 18.89° C | 21% | 1014.7 hPa | 0 mm | - | 779 W/m² | - |
| 1777578786 | 20° C | 21% | 1015 hPa | 0 mm | - | 763 W/m² | - |
| 1777578482 | 18.89° C | 22% | 1014.7 hPa | 0 mm | - | 776 W/m² | - |
| 1777578177 | 18.89° C | 21% | 1014.9 hPa | 0 mm | - | 654 W/m² | - |
| 1777577873 | 20° C | 21% | 1015.1 hPa | 0 mm | - | 752 W/m² | - |
| 1777577569 | 18.89° C | 22% | 1015.3 hPa | 0 mm | - | 789 W/m² | - |
| 1777577266 | 19.44° C | 20% | 1015.2 hPa | 0 mm | - | 800 W/m² | - |
| 1777576962 | 19.44° C | 21% | 1015.1 hPa | 0 mm | - | 818 W/m² | - |
| 1777576658 | 19.44° C | 22% | 1015.2 hPa | 0 mm | - | 823 W/m² | - |
| 1777576358 | 18.89° C | 22% | 1015.3 hPa | 0 mm | - | 807 W/m² | - |
| 1777576054 | 19.44° C | 23% | 1015.5 hPa | 0 mm | - | 785 W/m² | - |
| 1777575751 | 18.89° C | 23% | 1015.7 hPa | 0 mm | - | 822 W/m² | - |
* Rain latest hour (hover to see other rain measurements)
** Current wind speed in m/s (hover to see current wind gust speed)